EW1895 Weather Reports


Display with metric or nautical units.
time (UTC)temp
F
wind
direction
speed
MPH
gust
MPH
rain 1hr
in
rain 24hr
in
rain mn
in
humidity
%
barometer
mb
20260507170028 55 80 0.0 3.0 0.00 0.00 0.00 81 1012.0
20260507164528 56 155 0.0 0.0 0.00 0.00 0.00 87 1012.1
20260507163027 55 137 0.0 1.0 0.00 0.00 0.00 87 1012.2
20260507161527 55 9 0.0 0.0 0.00 0.00 0.00 89 1012.3
20260507160027 54 48 0.0 0.0 0.00 0.00 0.00 90 1012.6
20260507154529 54 98 0.0 0.0 0.00 0.00 0.00 88 1012.7
20260507153026 54 98 0.0 0.0 0.00 0.00 0.00 88 1012.8
20260507151528 54 309 0.0 2.0 0.00 0.00 0.00 89 1012.6
20260507150024 54 328 0.0 1.0 0.00 0.00 0.00 89 1012.5
20260507144524 55 335 0.0 3.0 0.00 0.00 0.00 87 1012.8
20260507143022 56 340 0.0 4.0 0.00 0.00 0.00 85 1012.5
20260507141523 56 343 0.0 2.0 0.00 0.00 0.00 87 1012.7
20260507140022 56 319 0.0 3.0 0.00 0.00 0.00 87 1012.9
20260507134522 56 319 0.0 3.0 0.00 0.00 0.00 87 1012.8
20260507133021 56 300 0.0 2.0 0.00 0.00 0.00 87 1012.7
20260507131521 56 355 0.0 2.0 0.00 0.00 0.00 87 1012.4
20260507130019 56 137 0.0 3.0 0.00 0.00 0.00 86 1012.3
20260507124522 56 232 0.0 4.0 0.00 0.00 0.00 86 1012.6
20260507123017 56 138 0.0 5.0 0.00 0.00 0.00 87 1012.2
20260507121516 55 204 0.0 1.0 0.00 0.00 0.00 88 1012.3
20260507120015 55 341 0.0 2.0 0.00 0.00 0.00 88 1012.2
20260507114515 55 103 0.0 2.0 0.00 0.00 0.00 88 1012.3
20260507113014 55 296 0.0 2.0 0.00 0.00 0.00 87 1012.2
20260507111517 55 278 0.0 4.0 0.00 0.00 0.00 88 1011.7
20260507110011 55 49 0.0 0.0 0.00 0.00 0.00 87 1011.8
20260507104521 55 345 0.0 0.0 0.00 0.00 0.00 87 1011.7
20260507103008 55 22 0.0 0.0 0.00 0.00 0.00 86 1011.7
20260507101507 55 350 0.0 5.0 0.00 0.00 0.00 86 1011.1
20260507100007 55 340 0.0 5.0 0.00 0.00 0.00 86 1011.3
20260507094505 56 329 0.0 3.0 0.00 0.00 0.00 87 1011.7
20260507093005 56 335 1.0 6.0 0.00 0.00 0.00 87 1011.7
20260507091502 56 329 0.0 3.0 0.00 0.00 0.00 89 1011.6
20260507090100 56 319 0.0 3.0 0.00 0.00 0.00 89 1011.3
20260507084557 57 319 0.0 4.0 0.00 0.00 0.00 89 1011.4
20260507083055 57 34 0.0 2.0 0.00 0.00 0.00 89 1011.3
20260507081557 57 339 0.0 5.0 0.00 0.00 0.00 89 1011.1
20260507080049 58 346 0.0 6.0 0.00 0.00 0.00 90 1011.1
20260507074546 59 5 0.0 5.0 0.00 0.00 0.00 90 1010.4
20260507073041 61 88 0.0 4.0 0.00 0.00 0.00 90 1010.4
20260507071538 63 262 1.0 4.0 0.00 0.00 0.00 91 1010.2
20260507070035 64 167 0.0 0.0 0.00 0.00 0.00 93 1010.1
20260507064532 65 167 0.0 0.0 0.00 0.00 0.00 92 1009.8
20260507063030 65 167 0.0 0.0 0.00 0.00 0.00 91 1009.3
20260507061530 65 167 0.0 0.0 0.00 0.00 0.00 90 1009.3
20260507060043 65 167 0.0 0.0 0.00 0.00 0.00 90 1008.9
20260507054538 66 167 0.0 0.0 0.00 0.00 0.00 89 1009.0
20260507053026 66 167 0.0 0.0 0.00 0.00 0.00 89 1008.9
20260507051528 66 167 0.0 0.0 0.00 0.00 0.00 89 1009.3
20260507050026 66 159 0.0 0.0 0.00 0.00 0.00 90 1009.6
20260507044544 65 159 0.0 0.0 0.00 0.00 0.00 90 1009.7
20260507043025 65 200 0.0 0.0 0.00 0.00 0.00 90 1010.1
20260507041524 65 200 0.0 0.0 0.00 0.00 0.00 90 1010.0
20260507040031 65 200 0.0 0.0 0.00 0.00 0.00 90 1009.8
20260507034523 65 200 0.0 0.0 0.00 0.00 0.00 90 1009.9
20260507033022 65 200 0.0 0.0 0.00 0.00 0.00 90 1010.2
20260507031521 65 200 0.0 0.0 0.00 0.00 0.00 90 1009.9
20260507030019 65 200 0.0 0.0 0.00 0.00 0.00 89 1009.9
20260507024519 65 200 0.0 0.0 0.00 0.00 0.00 89 1009.4
20260507023018 65 200 0.0 0.0 0.00 0.00 0.00 89 1009.7
20260507021520 66 200 0.0 0.0 0.00 0.00 0.00 88 1009.8
20260507020014 66 200 0.0 0.0 0.00 0.00 0.00 87 1010.0
20260507014514 66 200 0.0 0.0 0.00 0.00 0.00 87 1010.0
20260507013014 66 200 0.0 0.0 0.00 0.00 0.00 87 1010.1
20260507011512 66 200 0.0 0.0 0.00 0.00 0.00 87 1010.1
20260507010011 66 200 0.0 0.0 0.00 0.00 0.00 86 1009.9
20260507004509 66 200 0.0 0.0 0.00 0.00 0.00 86 1009.5
20260507003006 67 200 0.0 0.0 0.00 0.00 0.00 85 1009.9
20260507001512 67 139 0.0 1.0 0.00 0.00 0.00 83 1010.0
20260507000011 67 71 0.0 0.0 0.00 0.00 0.00 82 1009.8
20260506234504 68 80 0.0 0.0 0.00 0.00 0.00 82 1009.7
20260506233104 68 284 0.0 4.0 0.00 0.00 0.00 81 1009.5
20260506231559 69 261 0.0 1.0 0.00 0.00 0.00 80 1009.4
20260506230056 69 212 0.0 1.0 0.00 0.00 0.00 80 1009.2
20260506224603 70 248 0.0 2.0 0.00 0.00 0.00 79 1009.4
20260506223053 70 221 0.0 8.0 0.00 0.00 0.00 78 1009.5
20260506221554 70 242 0.0 5.0 0.00 0.00 0.00 78 1009.6
20260506220051 70 235 0.0 2.0 0.00 0.00 0.00 78 1009.5
20260506214606 70 290 0.0 2.0 0.00 0.00 0.00 77 1009.2
20260506213049 70 176 0.0 5.0 0.00 0.00 0.00 79 1009.7
20260506211649 70 19 0.0 3.0 0.00 0.00 0.00 77 1009.8
20260506210052 70 209 0.0 6.0 0.00 0.00 0.00 77 1009.6
20260506204556 71 209 0.0 5.0 0.00 0.00 0.00 77 1009.5
20260506203049 70 126 0.0 0.0 0.00 0.00 0.00 82 1009.5
20260506201542 68 118 0.0 2.0 0.00 0.00 0.00 83 1009.5
20260506200040 68 134 0.0 2.0 0.00 0.00 0.00 83 1009.4
20260506194553 68 130 0.0 1.0 0.00 0.00 0.00 83 1009.7
20260506193035 67 159 0.0 0.0 0.00 0.00 0.00 83 1009.6
20260506191535 67 175 0.0 2.0 0.00 0.00 0.00 85 1009.8
20260506190029 66 175 0.0 2.0 0.00 0.00 0.00 87 1010.2
20260506184530 65 180 0.0 2.0 0.00 0.00 0.00 86 1010.5
20260506183022 65 229 0.0 4.0 0.00 0.00 0.00 88 1010.5
20260506180036 65 263 1.0 5.0 0.00 0.00 0.00 87 1010.5
20260506174533 65 205 1.0 6.0 0.00 0.00 0.00 89 1010.9
20260506173030 64 221 1.0 5.0 0.00 0.00 0.00 90 1010.8
20260506171543 63 13 0.0 5.0 0.00 0.00 0.00 92 1010.9